Regional Weather Roundup
Issued by NWS Northern Indiana

Home | Current Version | Previous Version | Graphics & Text | Print | Product List | Glossary Off
Versions: 1 2 3 4 5 6 7 8 9 10 11 12 13 14 15 16 17 18 19 20 21 22 23 24 25 26 27 28 29 30 31 32 33 34 35 36 37 38 39 40 41 42 43 44 45 46 47 48 49 50

000
ASUS43 KIWX 202200
RWRIWX

KIWX WEATHER ROUNDUP
NATIONAL WEATHER SERVICE NORTHERN INDIANA
600 PM EDT FRI APR 20 2018

NOTE: "FAIR" INDICATES FEW OR NO CLOUDS BELOW 12,000 FEET WITH NO
SIGNIFICANT WEATHER AND/OR OBSTRUCTIONS TO VISIBILITY.

* THESE STATIONS ARE NOT UNDER NWS QUALITY CONTROL. THEY ALSO MAY NOT
  REPORT WEATHER SUCH AS PRECIPITATION OR FOG.

INZ001>027-202300-
NORTHERN INDIANA

CITY           SKY/WX    TMP DP  RH WIND       PRES   REMARKS
GARY*          MOSUNNY   54   7  15 NE10      30.48F
KNOX*          FAIR      59  18  20 NW9G16    30.44S
SOUTH BEND     FAIR      56  19  23 N12       30.46S
ELKHART*       FAIR      61  18  18 N8        30.43S
GOSHEN         FAIR      60  24  25 SE7       30.42F
MONTICELLO*    FAIR      59  14  17 CALM      30.43S
ROCHESTER*     FAIR      61  18  18 NW6       30.44S
WARSAW*        FAIR      55  23  28 SE3       30.43S
FORT WAYNE     FAIR      60  22  23 N8        30.43F
PERU/GRISSOM   MOSUNNY   57  21  24 N3        30.43F

$$
INZ028>050-202300-
CENTRAL INDIANA

CITY           SKY/WX    TMP DP  RH WIND       PRES   REMARKS
LAFAYETTE      FAIR      59  19  21 NE8       30.42F
KOKOMO*        FAIR      60  23  24 CALM      30.44R
MUNCIE*        FAIR      60  22  23 N9        30.42F
INDIANAPOLIS   FAIR      59  19  21 NE5       30.42S

$$
MIZ043>046-050>051-056>058-064>065-071>073-077>080-202300-
SOUTHWEST LOWER MICHIGAN

CITY           SKY/WX    TMP DP  RH WIND       PRES   REMARKS
BATTLE CREEK   FAIR      59  21  23 VRB3      30.43S
BENTON HARBOR  FAIR      50  13  22 VRB7      30.47F
COLDWATER*     FAIR      58  19  22 NW5       30.43S
HILLSDALE*     FAIR      55  14  19 NE5       30.42S
HOLLAND        FAIR      50  17  27 NW9       30.47S
GRAND RAPIDS   PTSUNNY   58  26  29 W17       30.43S
KALAMAZOO      FAIR      60  18  19 N6        30.43F

$$
OHZ001>008-015>018-024>025-202300-
NORTHWEST OHIO

CITY           SKY/WX    TMP DP  RH WIND       PRES   REMARKS
WAUSEON*       FAIR      59  14  17 NE7G13    30.43S
FINDLAY        FAIR      58  19  22 N5        30.43S
TOLEDO EXPRESS FAIR      59  17  19 N10       30.43S
TOLEDO METCALF FAIR      58  23  26 NE7       30.44R
LIMA           FAIR      55  23  28 N8        30.43S

$$
AND FOR LAKE MICHIGAN COASTAL AND OPEN LAKE BUOY OBSERVATIONS

STATION/POSITION TEMP    WIND        PRES    VSBY  WAVE
                 AIR SEA DIR/SP/G                  HT/PER
                 (F)     (DEG/KT/KT) (MB)    (MI)  (FT/S)
CALUMET HARBOR    44      60/  7/  8 1031.2F
MICHIGAN CITY     41      40/  6/  6   N/A
BURNS HARBOR      45      70/  6/  7 1032.5F
SAINT JOSEPH      47     310/  2/  4 1032.2

$$
&&




USA.gov is the U.S. government's official web portal to all federal, state and local government web resources and services.